STARLINK-32140, 61511

Orbit data source: Space-Track

STARLINK-32140, 61511 is a payload satellite owned by SpaceX/Seattle (US) in LEO that was launched on Tue, 15 Oct 2024 UTC via an FALCON 9 launch vehicle from the Air Force Eastern Test Range (AFETR). Payload-class satellites include a variety of spacecraft equipped with specific instruments for various scientific and technological missions. These include communications satellites like Starlink; space stations such as the ISS; scientific satellites like the Hubble; Earth observation satellites from companies like Planet Labs, Umbra, and HawkEye 360; GPS; miniature CubeSats for education and research; and military/defense satellites.

Loading next visibility...
Identifier
61511, 2024-183C
Orbit
LEO
Country
Flag of USUS
Related business
Manufacturer
SpaceX/Seattle
Mission
Operational Commercial Communications
Bus & Motor
STARLINK V2M, Unknown motor
Mass
730 kg wet, ~700 kg dry
Launch date (UTC)
2024-10-15 (1 year ago)
Launch vehicle
FALCON 9
Launch site
Air Force Eastern Test Range (AFETR)
Object type
Payload
Rocket body
Debris
Shape & HBR
Box + 2 Pan, 17.7 m
Radar Cross Section
33.884 m², Large (>1 m²)

Expand to show TLE details & history
Last TLE update: 10 hours ago

TLE from 10 hours ago
0 STARLINK-32140
1 61511U 24183C   25346.88236333  .00016533  00000-0  56921-3 0  9992
2 61511  53.1596 185.5391 0001530  89.1037 271.0139 15.30192743 66363
Epoch: 2025-12-12T21:10Z
TLE epoch observation values (Epoch: 2025-12-12T21:10:36.191Z)
Latitude
-0.00004°
Longitude
146.07067°
Altitude
476.118 km
Speed
7.629 km/s
True Right ascension
12h 22m 09s
True Declination
0° 00' 00"
Sunlit
Object was in daylight at epoch
Visualization orbit readout
Latitude
Unknown
Longitude
Unknown
Altitude
Unknown
Speed
Unknown
Apparent Right ascension
Unknown
Apparent Declination
Unknown
Sunlit
N/A
Visualization observer readout
Local Sidereal Time
05:21:59
Azimuth
Unknown
Elevation
Unknown
Doppler factor
Unknown
Orbital elements
Apogee altitude
476.542 km
Perigee altitude
474.445 km
Semi-major axis
6,853.63 km
Eccentricity
0.00015
Inclination
53.1596°
RAAN
185.5391°
Arg. of periapsis
89.1037°
True anomaly
270.99637°
Mean anomaly
271.0139°
Eccentric anomaly
271.00514°
Mean motion
3.82527 °/min
Orbital period
94.11 mins
BSTAR
0.00056921
Loading maneuver chart data...
Computing Atmospheric mass density...
Loading historical data...
Loading historical data...
Loading historical data...
Loading historical data...
Loading historical data...
Loading historical data...
Loading historical data...

Documentation

Showing up to 5 results
|